[[{"header":{"parameterUnit":"m.s-1","parameterCategory":1,"la1":30.2991,"la2":30.254,"lo1":-89.0895,"lo2":-89.0444,"dy":0.0017,"dx":0.0017,"nx":28,"ny":28,"refTime":"2023-07-18T09:00:00:Z","depth":0,"parameterNumber":2,"parameterNumberName":"U-component_of_WINDS"},"data":[0,0,0,0,0,0,0,0,0,0,0,0,0,0,0,0,0,0,0,0,0,0,0,0,0,0,0,0,0,0,0,0,0,0,0,0,0,0,0,0,0,0,0,0,0,0,0,0,0,0,0,0,0,0,0,0,0,0,3.0254,3.0254,0,3.0264,3.0264,3.0264,3.0253,3.0252,3.0252,3.0251,3.0261,3.0262,3.0263,0,0,0,0,0,0,0,0,0,0,0,0,0,3.0225,3.0226,3.0254,3.0254,3.0254,3.0264,3.0264,3.0264,3.0253,3.0252,3.0252,3.0251,3.0261,3.0262,3.0263,0,0,0,0,0,0,0,0,0,0,0,0,0,3.0237,3.0226,3.0254,3.025,3.025,3.0264,3.0264,3.0264,3.0253,3.0252,3.0251,3.0251,3.0261,3.0262,3.0263,3.0282,0,0,3.0266,3.0266,0,0,0,0,0,0,0,0,3.0236,3.0238,3.025,3.025,3.025,3.0256,3.0258,3.027,3.0253,3.0252,3.0251,3.0251,3.026,3.0261,3.0264,3.0282,3.0283,3.0266,3.0266,3.0267,3.0267,0,0,0,0,0,0,0,3.0235,3.0237,3.0258,3.0251,3.025,3.0247,3.0248,3.026,3.0259,3.0252,3.0251,3.0252,3.026,3.0263,3.0265,3.0283,3.0266,3.0267,3.0267,3.0268,3.0317,3.0317,0,0,0,0,0,0,3.0235,3.0237,3.0258,3.0258,3.0241,3.0248,3.0249,3.0255,3.0259,3.0259,3.0253,3.0252,3.0262,3.0263,3.0265,3.0287,3.0267,3.0268,3.0268,3.0316,3.0317,3.0318,0,0,0,0,0,0,3.0235,3.0237,3.0257,3.0247,3.025,3.025,3.0256,3.0255,3.0259,3.026,3.026,3.0256,3.0262,3.0263,3.0278,3.0287,3.0268,3.0269,3.0315,3.0316,3.0317,3.0332,0,0,0,0,0,0,3.0234,3.0237,3.0244,3.0248,3.025,3.027,3.0256,3.0256,3.0261,3.0259,3.0263,3.0263,3.0261,3.0276,3.0279,3.0288,3.027,3.0314,3.0316,3.0317,3.0331,3.0334,3.0336,0,0,0,0,0,3.0233,3.0248,3.0245,3.0247,3.0259,3.0271,3.0272,3.0269,3.0262,3.0269,3.0269,3.0263,3.0286,3.0278,3.028,3.0291,3.0314,3.0315,3.0317,3.033,3.0333,3.0336,0,0,0,0,0,0,3.0246,3.0249,3.0245,3.0262,3.0266,3.0269,3.0278,3.0273,3.028,3.0278,3.0274,3.0275,3.029,3.0292,3.0283,3.0309,3.0299,3.0301,3.0308,3.0311,3.0314,3.0313,3.0271,0,0,0,0,0,3.0251,3.026,3.0261,3.0276,3.0279,3.0278,3.0283,3.028,3.0284,3.0286,3.0288,3.0292,3.03,3.0306,3.0313,3.0331,3.0332,3.034,3.0342,3.0345,3.0346,3.0356,3.0359,3.0323,3.0323,3.0323,0,0,3.0261,3.0263,3.0269,3.0279,3.0282,3.0291,3.0279,3.029,3.0297,3.0288,3.0301,3.0303,3.0307,3.0323,3.0331,3.0325,3.0357,3.0347,3.0348,3.0349,3.0358,3.0361,3.0364,3.0324,3.0324,3.0323,0,0,3.0284,3.0287,3.0299,3.0303,3.0308,3.0307,3.031,3.0313,3.0314,3.0327,3.0321,3.0329,3.0343,3.0347,3.035,3.0375,3.037,3.0378,3.0391,3.0401,3.0403,3.0406,3.0415,3.0418,3.038,3.038,3.038,0,3.0296,3.0309,3.0306,3.0317,3.0322,3.0314,3.0327,3.033,3.0337,3.034,3.0334,3.0352,3.0354,3.0371,3.0377,3.0381,3.0384,3.0377,3.0403,3.0406,3.0408,3.0416,3.0419,3.0381,3.038,3.038,3.038,0,3.0324,3.0333,3.0343,3.035,3.0356,3.0367,3.0366,3.0372,3.0369,3.0369,3.0383,3.0386,3.0393,3.0397,3.0395,3.0414,3.041,3.0404,3.0393,3.0413,3.042,3.0423,3.0382,3.0381,3.0381,3.0381,0,0,3.0355,3.036,3.0364,3.0367,3.0372,3.0379,3.0391,3.0398,3.0404,3.0409,3.0418,3.043,3.0424,3.0429,3.0426,3.0434,3.0453,3.0427,3.0427,3.0431,3.0475,3.0479,3.0483,3.045,3.045,3.0451,3.0474,0,3.0378,3.0398,3.0395,3.0414,3.0423,3.0416,3.0426,3.043,3.043,3.0438,3.0438,3.0447,3.0438,3.0441,3.0449,3.0449,3.0462,3.0448,3.0458,3.0459,3.0457,3.0487,3.0492,3.0513,3.0477,3.0477,3.0478,0,3.0408,3.0414,3.0434,3.0437,3.0441,3.045,3.0457,3.0464,3.0468,3.0468,3.0473,3.0469,3.048,3.0469,3.0485,3.0475,3.0479,3.048,3.0481,3.0481,3.0469,3.0488,3.052,3.0523,3.0482,3.0482,3.0482,0,3.0428,3.0442,3.0455,3.0458,3.0463,3.0469,3.0471,3.0475,3.048,3.0486,3.0489,3.0496,3.05,3.0506,3.0504,3.0496,3.052,3.0509,3.052,3.052,3.0525,3.0524,3.0558,3.0528,3.0528,3.0528,3.0528,0,3.0454,3.0466,3.0465,3.0473,3.0486,3.0483,3.0497,3.0498,3.0502,3.051,3.0504,3.0512,3.0509,3.0517,3.0516,3.0529,3.0531,3.053,3.053,3.0531,3.0531,3.0533,3.0532,3.0529,3.0528,3.0528,3.0528,0,3.048,3.0479,3.0493,3.0496,3.0497,3.0507,3.0509,3.0517,3.0517,3.0528,3.053,3.053,3.0539,3.0538,3.0547,3.0546,3.0562,3.056,3.0561,3.056,3.0571,3.057,3.0607,3.0612,3.0579,3.0579,3.058,0,3.0496,3.0505,3.0509,3.0515,3.0517,3.0526,3.0531,3.0528,3.0533,3.0539,3.0546,3.0554,3.0561,3.0575,3.0576,3.0583,3.0581,3.0594,3.0582,3.0583,3.0581,3.058,3.0581,3.0596,3.0596,3.0596,3.0597,0,3.0525,3.0524,3.0532,3.0539,3.0545,3.0551,3.0556,3.056,3.0558,3.0564,3.0573,3.0578,3.0588,3.0596,3.0603,3.0605,3.0601,3.06,3.0603,3.0604,3.0604,3.0604,3.0567,3.0599,3.0599,3.0599,3.0599,3.0599,3.0547,3.0554,3.0559,3.0567,3.057,3.0575,3.0582,3.0583,3.0591,3.0599,3.0597,3.0607,3.0611,3.062,3.0622,3.063,3.0625,3.063,3.0631,3.0632,3.0633,3.0603,3.0631,3.0631,3.0631,3.0631,3.0631,0,3.0575,3.0578,3.0585,3.0592,3.0599,3.0594,3.0599,3.0605,3.0614,3.0618,3.0624,3.0635,3.0643,3.0644,3.0651,3.0657,3.0655,3.0659,3.0659,3.0659,3.0637,3.0633,3.0661,3.0661,3.0661,3.0661,3.0661,3.0661,3.0591,3.0604,3.0604,3.0618,3.062,3.063,3.0634,3.0638,3.0641,3.0653,3.0659,3.066,3.0663,3.0671,3.0678,3.0678,3.0681,3.0686,3.0685,3.0664,3.0661,3.0658,3.0655,3.0686,3.0686,3.0707,3.0707,3.0707]},{"header":{"parameterUnit":"m.s-1","parameterCategory":1,"la1":30.2991,"la2":30.254,"lo1":-89.0895,"lo2":-89.0444,"dy":0.0017,"dx":0.0017,"nx":28,"ny":28,"refTime":"2023-07-18T09:00:00:Z","depth":0,"parameterNumber":3,"parameterNumberName":"V-component_of_WINDS"},"data":[0,0,0,0,0,0,0,0,0,0,0,0,0,0,0,0,0,0,0,0,0,0,0,0,0,0,0,0,0,0,0,0,0,0,0,0,0,0,0,0,0,0,0,0,0,0,0,0,0,0,0,0,0,0,0,0,0,0,0.6958,0.6958,0,0.6918,0.6917,0.6917,0.6916,0.6917,0.6917,0.6918,0.6873,0.6872,0.687,0,0,0,0,0,0,0,0,0,0,0,0,0,0.7033,0.7031,0.6959,0.6958,0.6958,0.6918,0.6917,0.6916,0.6916,0.6917,0.6918,0.6918,0.6874,0.6872,0.687,0,0,0,0,0,0,0,0,0,0,0,0,0,0.6997,0.7031,0.6959,0.6953,0.6952,0.6918,0.6917,0.6916,0.6916,0.6917,0.6918,0.6919,0.6874,0.6872,0.6869,0.6838,0,0,0.6862,0.6861,0,0,0,0,0,0,0,0,0.6999,0.6994,0.6954,0.6953,0.6952,0.6923,0.6927,0.689,0.6916,0.693,0.6918,0.6919,0.6889,0.6885,0.6876,0.6836,0.6834,0.6862,0.686,0.6859,0.6858,0,0,0,0,0,0,0,0.7001,0.6996,0.6942,0.6953,0.6952,0.6951,0.6947,0.692,0.6905,0.6928,0.6928,0.6924,0.6888,0.6878,0.6875,0.6833,0.6862,0.6859,0.6858,0.6857,0.6762,0.6761,0,0,0,0,0,0,0.7006,0.6998,0.6944,0.6941,0.6978,0.6949,0.6944,0.6931,0.6906,0.6902,0.6923,0.6924,0.6882,0.6878,0.6873,0.6833,0.6859,0.6857,0.6855,0.6763,0.6762,0.6761,0,0,0,0,0,0,0.7007,0.7001,0.6945,0.6969,0.6962,0.6947,0.6932,0.693,0.692,0.6901,0.6898,0.6915,0.6883,0.6877,0.6846,0.6831,0.6855,0.6853,0.6765,0.6763,0.6762,0.6753,0,0,0,0,0,0,0.7009,0.7001,0.699,0.6969,0.6961,0.692,0.6932,0.6929,0.6916,0.6917,0.6894,0.689,0.6883,0.685,0.6844,0.6828,0.6851,0.6766,0.6764,0.6762,0.6754,0.6751,0.6748,0,0,0,0,0,0.7012,0.6989,0.699,0.6983,0.6947,0.6919,0.6915,0.6907,0.6915,0.6902,0.689,0.6891,0.6834,0.6847,0.684,0.6823,0.6767,0.6764,0.6762,0.6755,0.6752,0.6748,0,0,0,0,0,0,0.7008,0.6986,0.6987,0.6957,0.694,0.6919,0.6904,0.6903,0.6884,0.6885,0.6875,0.687,0.6839,0.6828,0.6843,0.679,0.6801,0.6797,0.6798,0.6794,0.6792,0.6794,0.6849,0,0,0,0,0,0.7004,0.6985,0.6966,0.6941,0.6933,0.692,0.6908,0.6903,0.6885,0.6878,0.6863,0.6845,0.6822,0.6808,0.6787,0.6753,0.6746,0.6737,0.6735,0.6732,0.6729,0.6708,0.6703,0.6754,0.6754,0.6754,0,0,0.6995,0.6981,0.6969,0.694,0.6927,0.6905,0.6914,0.6892,0.6875,0.6874,0.6844,0.6833,0.6811,0.6779,0.6763,0.6768,0.6713,0.6729,0.6728,0.6725,0.6705,0.67,0.6696,0.6752,0.6753,0.6753,0,0,0.6967,0.6955,0.6932,0.6919,0.6898,0.6889,0.6884,0.6863,0.6855,0.6826,0.6824,0.6803,0.6766,0.675,0.6737,0.6701,0.67,0.6694,0.6679,0.6658,0.6654,0.6651,0.6636,0.6631,0.6691,0.6691,0.6691,0,0.6958,0.6927,0.692,0.6897,0.6884,0.6883,0.6858,0.6845,0.6818,0.6808,0.6814,0.6766,0.6751,0.6714,0.6705,0.6695,0.6687,0.6697,0.6656,0.6652,0.6648,0.6634,0.6629,0.669,0.6691,0.6691,0.6691,0,0.6916,0.6894,0.6878,0.6853,0.6837,0.6814,0.6802,0.6787,0.6784,0.6773,0.6742,0.6724,0.6698,0.6689,0.6686,0.665,0.6654,0.6658,0.6669,0.6643,0.6629,0.6624,0.6689,0.669,0.669,0.669,0,0,0.6885,0.6856,0.685,0.6837,0.6814,0.6796,0.6772,0.6747,0.6733,0.6714,0.6692,0.666,0.6663,0.6648,0.6642,0.6625,0.6595,0.6631,0.663,0.6623,0.6553,0.6549,0.6543,0.6595,0.6594,0.6593,0.6554,0,0.6854,0.6812,0.6804,0.6766,0.6745,0.6742,0.6721,0.6703,0.6693,0.6672,0.666,0.6636,0.6643,0.6634,0.6616,0.6602,0.658,0.6605,0.6572,0.6571,0.6577,0.6536,0.6532,0.6497,0.6549,0.6548,0.6547,0,0.6812,0.6792,0.6752,0.673,0.6721,0.6702,0.6677,0.6658,0.6637,0.6631,0.6613,0.6609,0.6582,0.6594,0.6555,0.6572,0.6558,0.6548,0.6547,0.6543,0.6557,0.6529,0.6485,0.6479,0.6539,0.654,0.6541,0,0.6791,0.6755,0.6726,0.6715,0.6689,0.6676,0.6664,0.6644,0.6629,0.6607,0.6597,0.6572,0.6558,0.6538,0.6526,0.6537,0.6487,0.6499,0.6479,0.6479,0.6468,0.6469,0.642,0.6461,0.6461,0.6461,0.6461,0,0.6757,0.6732,0.6716,0.6698,0.667,0.6661,0.6632,0.662,0.6602,0.658,0.6577,0.6556,0.6543,0.652,0.651,0.6478,0.6472,0.6465,0.6462,0.6464,0.6465,0.6454,0.6456,0.646,0.646,0.646,0.6461,0,0.6729,0.6717,0.6685,0.6663,0.6657,0.6637,0.6617,0.6598,0.6587,0.656,0.6553,0.6535,0.6508,0.6494,0.646,0.6454,0.6417,0.6417,0.6424,0.6423,0.6403,0.6404,0.6344,0.6335,0.6384,0.6383,0.6383,0,0.6707,0.6688,0.6663,0.6649,0.6637,0.6614,0.6598,0.6588,0.6571,0.6545,0.6529,0.6502,0.6479,0.6435,0.6418,0.6391,0.639,0.637,0.6386,0.6388,0.6387,0.6388,0.6385,0.6367,0.6367,0.6367,0.6366,0,0.6668,0.6663,0.6642,0.6618,0.6599,0.658,0.656,0.6548,0.6534,0.6516,0.6488,0.647,0.6435,0.6407,0.6379,0.6365,0.6362,0.6362,0.6355,0.6357,0.6361,0.6357,0.6415,0.6363,0.6363,0.6364,0.6364,0.6364,0.6641,0.6624,0.6603,0.6579,0.6563,0.6545,0.6526,0.6512,0.6489,0.646,0.6455,0.6425,0.6402,0.6364,0.6349,0.6324,0.6328,0.632,0.6317,0.6315,0.6313,0.6366,0.6319,0.6319,0.6319,0.6319,0.632,0,0.6601,0.6588,0.6566,0.6538,0.6519,0.6519,0.6497,0.648,0.6454,0.6433,0.6411,0.6378,0.635,0.6331,0.6302,0.6286,0.6284,0.6279,0.6279,0.6275,0.6312,0.6319,0.6281,0.6281,0.6281,0.6281,0.6281,0.6281,0.6578,0.6547,0.654,0.65,0.6487,0.6458,0.6445,0.6427,0.6411,0.6374,0.6351,0.6339,0.6319,0.6288,0.6262,0.6257,0.6246,0.624,0.6235,0.6269,0.6273,0.6277,0.6284,0.6238,0.6238,0.62,0.62,0.62]}]]